{"data":{"norad_id":59364,"epoch":"2026-09-21T06:10:07.190688Z","epoch_age_seconds":96876,"freshness":"FRESH","line1":"1 59364U 24060S   26264.25702767  .00000980  00000+0  45096-4 0  9999","line2":"2 59364  43.0007 224.0303 0000972 268.4973  91.5767 15.27590962140101","mean_motion":15.27590962,"eccentricity":9.72e-5,"inclination_deg":43.0007,"raan_deg":224.0303,"arg_perigee_deg":268.4973,"mean_anomaly_deg":91.5767,"bstar":4.5096e-5,"rev_number":14010,"period_min":94.266072255015,"perigee_km":482.34936796634,"apogee_km":483.68317616243,"semimajor_km":6861.1532720644,"source":"CELESTRAK","updated_at":"2026-09-22T09:00:48.906209Z"}}